{"data":{"norad_id":57124,"epoch":"2026-09-20T08:24:36.164448Z","epoch_age_seconds":133779,"freshness":"FRESH","line1":"1 57124U 23090Z   26263.35041857 -.00000573  00000+0 -11293-4 0  9991","line2":"2 57124  43.0006 262.1764 0001224 270.4363  89.6348 15.27581582180108","mean_motion":15.27581582,"eccentricity":0.0001224,"inclination_deg":43.0006,"raan_deg":262.1764,"arg_perigee_deg":270.4363,"mean_anomaly_deg":89.6348,"bstar":-1.1293e-5,"rev_number":18010,"period_min":94.266651088753,"perigee_km":482.20455036828,"apogee_km":483.88416756496,"semimajor_km":6861.1813589666,"source":"CELESTRAK","updated_at":"2026-09-21T09:00:33.562804Z"}}